Location: Cambroso
(45.2833°N, 12.0850°E)
Time: 18:42:43
(UTC+00:00)

Cosmos 1833 Rocket - Pass Details

Date: 21 January 2021
Orbit: 833 x 839 km, 71.0° (Epoch: 28 February)

Event Time Altitude Azimuth Distance (km) Brightness Sun altitude
Rises 17:31:54 0° 341° (NNW) 3,391 5.9 -15.4°
Reaches altitude 10° 17:34:56 10° 357° (N) 2,454 5.0 -15.9°
Maximum altitude 17:39:12 22° 47° (NE) 1,772 3.9 -16.6°
Enters shadow 17:39:14 22° 47° (NE) 1,772 3.9 -16.6°
